Location: ?????????
(44.2517°N, 135.2292°E)
Time: 15:21:32
(UTC+00:00)

ARIANE 6 FM1 Upper Stage - Pass Details

Date: 22 January 2026
Orbit: 522 x 609 km, 62.0° (Epoch: 11 February)

Event Time Altitude Azimuth Distance (km) Brightness Sun altitude
Rises 09:31:51 0° 202° (SSW) 2,715 6.6 -17.3°
Reaches altitude 10° 09:34:09 10° 197° (SSW) 1,811 5.6 -17.7°
Maximum altitude 09:38:02 46° 123° (ESE) 733 2.9 -18.4°
Enters shadow 09:38:29 43° 102° (ESE) 758 2.9 -18.4°
